Regional Weather Roundup
Issued by NWS Grand Forks, ND

Home | Current Version | Previous Version | Graphics & Text | Print | Product List | Glossary On
Versions: 1 2 3 4 5 6 7 8 9 10 11 12 13 14 15 16 17 18 19 20 21 22 23 24 25 26 27 28 29 30 31 32 33 34 35 36 37 38 39 40 41 42 43 44 45 46 47 48 49 50
000
ASUS43 KFGF 271231
RWRFGF
PRAIRIE TO PINES  WEATHER ROUNDUP
NATIONAL WEATHER SERVICE EASTERN NORTH DAKOTA/GRAND FORKS ND
700 AM CDT WED AUG 27 2014

 **SATELLITE DATA USED TO AUGMENT SKY COVER AT AUTOMATED STATIONS**
 *****  WEATHER ACROSS EASTERN NORTH DAKOTA  *****

CITY           SKY/WX    TMP DP  RH WIND       PRES   REMARKS
GRAND FORKS    PTCLDY    48  47  96 S5        30.17R
6HR MIN TEMP:  47; 6HR MAX TEMP:  53;

GRAND FRKS AFB CLEAR     47  46  99 S2        30.17S
GRAND FRKS NWS   N/A     48 N/A N/A SW3         N/A
DEVILS LAKE    PTCLDY    48  43  81 CALM      30.16R VSB 1/2
6HR MIN TEMP:  48; 6HR MAX TEMP:  57;

FARGO          FOG       51  51 100 E6        30.18R VSB 3/4
WAHPETON ARPT  CLOUDY    57  55  94 CALM      30.19S
$$

 ***** WEATHER ACROSS CENTRAL AND WESTERN NORTH DAKOTA  *****

CITY           SKY/WX    TMP DP  RH WIND       PRES   REMARKS
BISMARCK       FOG       49  49 100 CALM      30.17R VSB 1/4
6HR MIN TEMP:  48; 6HR MAX TEMP:  56;

MINOT          CLEAR     52  49  89 SW6       30.12F
6HR MIN TEMP:  52; 6HR MAX TEMP:  57;

JAMESTOWN      FOG       50  49  96 CALM      30.17S VSB<1/4
6HR MIN TEMP:  49; 6HR MAX TEMP:  52;

MINOT AFB      CLEAR     48  48 100 S3        30.12S
GARRISON         N/A     45  45 100 CALM      30.15S
WILLISTON      CLEAR     51  50  96 SW3       30.11S
6HR MIN TEMP:  50; 6HR MAX TEMP:  57;

DICKINSON      FOG       49  48  97 S8        30.13R VSB<1/4
6HR MIN TEMP:  46; 6HR MAX TEMP:  52;

HETTINGER      FOG       46  45  96 CALM      30.17R VSB 1/4
6HR MIN TEMP:  44; 6HR MAX TEMP:  50;

$$

 *****  OTHER AIRPORT OBSERVATIONS IN OUR AREA  *****

CITY           SKY/WX    TMP DP  RH WIND       PRES   REMARKS
WALHALLA         N/A     46  46 100 CALM      30.15S
GRAFTON AIRPOR FAIR      48  48 100 SW5       30.16R FOG
VALLEY CITY AR FOG       50  50 100 CALM      30.18S VSB 1/2
CANDO          FOG       43  43 100 S5        30.17S VSB<1/4
CAVALIER APRT  FAIR      45  45 100 CALM      30.15S
GWINNER        CLOUDY    59  59 100 E3        30.19S
ROLLA          FAIR      46  46 100 S6        30.16S
 ***** THE ABOVE OBSERVATIONS ARE NON NWS ARE NOT QUALITY
       CONTROLLED AND MAY MIS-REPORT RAIN FOR SNOW...
$$

  *****  WEATHER ACROSS NORTHERN MINNESOTA  *****

CITY           SKY/WX    TMP DP  RH WIND       PRES   REMARKS
FLAG ISLAND    CLEAR     57  52  82 SW3       30.15F
WARROAD        CLEAR     46  43  87 S3        30.17S
ROSEAU         CLOUDY    45  41  87 CALM      30.17S FOG
HALLOCK        FOG       45  45 100 SE6       30.16S VSB 1/4
THF RVR FALLS  CLOUDY    48  48 100 S6        30.18S VSB 1/4
6HR MIN TEMP:  48; 6HR MAX TEMP:  52;

BAUDETTE       MOCLDY    48  46  93 CALM      30.18S
6HR MIN TEMP:  44; 6HR MAX TEMP:  48;

WASKISH        CLEAR     48  48 100 CALM      30.18S
CROOKSTON      PTCLDY    46  46 100 S3        30.19S FOG
$$
  *****  WEATHER ACROSS CENTRAL AND WEST MINNESOTA  *****

CITY           SKY/WX    TMP DP  RH WIND       PRES   REMARKS
FOSSTON        FOG       45  45 100 S5        30.20S VSB<1/4
BEMIDJI        CLEAR     42  42 100 CALM      30.19S
PARK RAPIDS    FOG       50  50 100 CALM      30.20S VSB 1/4
6HR MIN TEMP:  51; 6HR MAX TEMP:  57;

ELBOW LAKE     CLOUDY    58  57  97 E5        30.19S
6HR MIN TEMP:  57; 6HR MAX TEMP:  58; 6HR PCP:  0.01;

WADENA         PTCLDY    55  55 100 CALM      30.19F FOG
DETROIT LAKES  CLEAR     54  54 100 CALM      30.21R
MOORHEAD       FOG       54  54 100 CALM      30.19S VSB 1/2
FERGUS FALLS   CLOUDY    59  57  94 CALM      30.19F
MORRIS MN      MOCLDY    57  57 100 SE3       30.19S
STAPLES        CLOUDY    55  55 100 CALM      30.20S
$$
  *****  WEATHER ELSEWHERE ACROSS MINNESOTA  *****

CITY           SKY/WX    TMP DP  RH WIND       PRES   REMARKS
DULUTH         PTCLDY    50  47  89 CALM      30.21R
6HR MIN TEMP:  48; 6HR MAX TEMP:  55; 6HR PCP: TRACE;

INTRNTL FALLS  CLOUDY    42  41  96 CALM      30.19R
6HR MIN TEMP:  35; 6HR MAX TEMP:  42;

ELY            PTCLDY    43  41  93 CALM      30.20F
CLOQUET        CLEAR     48  46  93 CALM      30.21S
WHEATON        CLOUDY    54  54 100 CALM      30.21S FOG
BRAINERD       PTCLDY    53  53 100 CALM      30.21S
6HR MIN TEMP:  53; 6HR MAX TEMP:  57; 6HR PCP: TRACE;

HIBBING        CLEAR     40  38  93 CALM      30.21R FOG
6HR MIN TEMP:  40; 6HR MAX TEMP:  51;

ALEXANDRIA     MOCLDY    56  55  97 SE3       30.21S
6HR MIN TEMP:  56; 6HR MAX TEMP:  59; 6HR PCP:  0.09;

SAINT CLOUD    MOCLDY    57  54  89 CALM      30.20S
6HR MIN TEMP:  57; 6HR MAX TEMP:  63; 6HR PCP: TRACE;

MINNEAPOLIS    PTCLDY    60  55  83 NE6       30.20R
6HR MIN TEMP:  59; 6HR MAX TEMP:  65; 6HR PCP: TRACE;

$$

  *****  WEATHER ACROSS SOUTH DAKOTA  *****

CITY           SKY/WX    TMP DP  RH WIND       PRES   REMARKS
SIOUX FALLS    MOCLDY    61  56  83 E5        30.16R
6HR MIN TEMP:  58; 6HR MAX TEMP:  61;

BROOKINGS      NOT AVBL
WATERTOWN      PTCLDY    56  53  90 E7        30.16F
6HR MIN TEMP:  54; 6HR MAX TEMP:  59;

HURON          MOCLDY    59  57  93 E5        30.14S
6HR MIN TEMP:  59; 6HR MAX TEMP:  62;

SISSETON         N/A     55  55 100 CALM      30.18R
ABERDEEN       CLEAR     53  53 100 NE6       30.17R
6HR MIN TEMP:  53; 6HR MAX TEMP:  58;

MITCHELL       CLOUDY    59  58  96 SE8       30.13S
PIERRE         CLOUDY    60  59  96 E8        30.10S
6HR MIN TEMP:  57; 6HR MAX TEMP:  61;

MOBRIDGE       CLEAR     54  52  93 VRB3      30.13S
RAPID CITY     MOCLDY    57  53  86 N7        30.14R
6HR MIN TEMP:  56; 6HR MAX TEMP:  61;

$$

  *****  SOME WEATHER IN NEARBY STATES *****

CITY           SKY/WX    TMP DP  RH WIND       PRES   REMARKS
GLASGOW MT     CLEAR     52  49  89 E12       30.04S
6HR MIN TEMP:  52; 6HR MAX TEMP:  58;

GREAT FALLS MT CLEAR     50  44  80 S8        30.06S
6HR MIN TEMP:  49; 6HR MAX TEMP:  60;

CHEYENNE WY    CLOUDY    57  53  86 N6        30.20F
6HR MIN TEMP:  53; 6HR MAX TEMP:  59;

SCOTTSBLUFF NE MOCLDY    61  60  97 N3        30.11F
6HR MIN TEMP:  61; 6HR MAX TEMP:  64;

OMAHA NE       MOCLDY    69  64  84 SE7       30.10R
6HR MIN TEMP:  67; 6HR MAX TEMP:  71;

DES MOINES IA  CLOUDY    68  62  81 NE7       30.14R
6HR MIN TEMP:  68; 6HR MAX TEMP:  72;

DAVENPORT IA   CLOUDY    66  62  87 NE9       30.14R
6HR MIN TEMP:  66; 6HR MAX TEMP:  68; 6HR PCP: TRACE;

CHICAGO IL     MOCLDY    68  61  78 N6        30.14R
6HR MIN TEMP:  68; 6HR MAX TEMP:  72;

EAU CLAIRE WI  PTCLDY    58  57  97 CALM      30.19R
6HR MIN TEMP:  57; 6HR MAX TEMP:  63; 6HR PCP:  0.03;

LA CROSSE WI   CLOUDY    64  57  78 CALM      30.17S
6HR MIN TEMP:  61; 6HR MAX TEMP:  65; 6HR PCP: TRACE;

$$

  *****  SOME NATIONAL WEATHER *****

CITY           SKY/WX    TMP DP  RH WIND       PRES   REMARKS
LA GUARDIA NY  MOSUNNY   75  63  66 SW3       30.04R
6HR MIN TEMP:  72; 6HR MAX TEMP:  75;

RALEIGH NC     MOSUNNY   64  60  87 N3        30.09R
6HR MIN TEMP:  58; 6HR MAX TEMP:  64;

ATLANTA GA     PTCLDY    68  60  75 NE6       30.11R
6HR MIN TEMP:  66; 6HR MAX TEMP:  70;

NEW ORLEANS LA PTCLDY    82  75  79 E8        29.98R
6HR MIN TEMP:  80; 6HR MAX TEMP:  82;

OKLAHOMA CITY  PTCLDY    71  67  87 SE3       30.09R
6HR MIN TEMP:  69; 6HR MAX TEMP:  77;

ALBUQUERQUE NM MOCLDY    61  57  87 S6        30.29S
6HR MIN TEMP:  61; 6HR MAX TEMP:  68; 6HR PCP:  0.07;

SALT LAKE CITY MOCLDY    61  53  75 CALM      30.19S
6HR MIN TEMP:  59; 6HR MAX TEMP:  61;

LOS ANGELES CA CLEAR     68  62  81 CALM      30.01R
6HR MIN TEMP:  67; 6HR MAX TEMP:  70;

BOISE ID       CLEAR     62  46  55 SE8       30.10R



USA.gov is the U.S. government's official web portal to all federal, state and local government web resources and services.